Terug naar catalogus

NAHUEL 1A

ActiefCommunicatieGEO
NORAD 24714·PAYLOAD·🇦🇷 Argentina

Gelanceerd Jan 30, 1997 vanaf Guiana Space Centre

Loading…

TLE

VersSource: Space-Track

Epoch: Sep 14, 2026, 05:53 UTC

1 24714U 97002B   26257.24561084 -.00000334  00000-0  00000-0 0  9999
2 24714  12.6228  27.7266 0007862 194.5526 355.3898  0.99388814107937

Volg NAHUEL 1A in realtime met AllMySat

Download on the App Store